Regional Weather Roundup
Issued by NWS Pendleton, OR

Home | Current Version | Previous Version | Text Only | Print | Product List | Glossary On
Versions: 1 2 3 4 5 6 7 8 9 10 11 12 13 14 15 16 17 18 19 20 21 22 23 24 25 26 27 28 29 30 31 32 33 34 35 36 37 38 39 40 41 42 43 44 45 46 47 48 49 50
000
ASUS46 KPDT 311825
RWRPDT
PENDLETON REGIONAL WEATHER ROUNDUP
NATIONAL WEATHER SERVICE PENDLETON OREGON
1100 AM PDT MON AUG 31 2015

NOTE: FAIR INDICATES FEW OR NO CLOUDS BELOW 12,000 FEET WITH NO
SIGNIFICANT WEATHER AND/OR OBSTRUCTIONS TO VISIBILITY.

# INDICATES UNOFFICIAL STATION AND DATA

WAZ520-311910-
EAST SLOPES OF WASHINGTON CASCADES

CITY            SKY/WX      TMP DP  RH  WIND    PRES   REMARKS
#BULLFROG 2SW   N/A         55  50  83  N2      27.62R
#BUMPING DAM    N/A         50  N/A N/A N2      N/A
#CLE ELUM HS    N/A         57  50  77  SW1     29.96R
#CLE ELUM LAKE  N/A         56  50  80  CALM    29.95R
#CLIFFDEL 2NW   N/A         56  45  66  CALM    N/A
#GLENWOOD       N/A         61  52  72  S8      30.01S
#MANASTASH CYN  N/A         56  43  62  CALM    30.00R
#NELSON         N/A         57  52  83  CALM    29.98R
#NELSON 3SW     N/A         53  49  86  CALM    30.18R
#NILE           N/A         56  45  66  CALM    29.25R
#RONALD 2NW     N/A         59  10  14  CALM    29.90R
#SNOWDEN        N/A         59  35  40  NW3     N/A
#TEANAWAY 4NE   N/A         58  51  77  CALM    N/A
#TROUT LAKE 1NE N/A         59  50  72  W7      30.03F
$$

WAZ521-311910-
SIMCOE HIGHLANDS

CITY            SKY/WX      TMP DP  RH  WIND    PRES   REMARKS
#BICKLETON HS   N/A         59  38  45  W12     N/A
#CENTERVILLE 4W N/A         65  48  54  CALM    29.79F
#GOLDENDALE     N/A         64  48  56  W10     N/A
#GOLDENDALE 1NE N/A         64  36  35  SW7     N/A
#GOLDENDALE 5WNWN/A         65  48  54  SW12    29.98F
#GOODNOE HILLS  N/A         68  50  53  SW17    N/A
#LYLE 6NE       N/A         63  52  67  SW5     29.99S
$$

WAZ026-311910-
KITTITAS VALLEY

CITY            SKY/WX      TMP DP  RH  WIND    PRES   REMARKS
ELLENSBURG AP   CLOUDY      62  47  58  W6      30.01R
6HR MIN TEMP:   52; 6HR MAX TEMP:   62;

YTC-OPS AREA    MOSUNNY     62  42  48  S10G24  29.99R
6HR MIN TEMP:   49; 6HR MAX TEMP:   63;

#ELLENSBURG CWU N/A         60  48  64  NW1     29.93S
#ELLENSBURG 3NE N/A         58  48  69  CALM    30.01R
#ELLENSBURG 1E  N/A         60  46  60  CALM    N/A
#KITTITAS 4N    N/A         63  47  56  NW2     30.00S
#KITTITAS 3S    N/A         61  52  72  W1      29.95S
#THORP 6N       N/A         57  49  75  N3      29.98R
$$

WAZ027-311910-
YAKIMA VALLEY

CITY            SKY/WX      TMP DP  RH  WIND    PRES   REMARKS
SUNNYSIDE AP    MOCLDY      68  46  45  CALM    29.99F
YAKIMA AIRPORT  PTCLDY      72  46  39  S9      29.99F
6HR MIN TEMP:   50; 6HR MAX TEMP:   72;

YAKIMA-VAGABOND SUNNY       68  46  45  SW7     30.00R
6HR MIN TEMP:   51; 6HR MAX TEMP:   68;

#DONALD 2NE     N/A         75  34  22  CALM    28.84F
#GRANDVIEW      N/A         70  45  41  CALM    29.99F
#MABTON         N/A         69  50  51  N2      29.98F
#MOXEE 2E       N/A         68  28  22  S3      29.92F
#NACHES 2SW     N/A         60  49  67  CALM    30.01S
#OUTLOOK DOT    N/A         N/A N/A N/A SE1     N/A
#SELAH 8E       N/A         67  45  45  SW9     N/A
#TERRACE HTS    N/A         67  49  52  SE3     29.93S
#TOPPENISH      N/A         68  48  49  W2      29.89F
#WAPATO 4NE     N/A         75  34  22  CALM    28.84F
#W YAKIMA       N/A         68  49  51  W1      29.95F
#WHITE SWAN 5E  N/A         72  50  46  W13     29.96F
#WILEY CITY 3W  N/A         68  42  39  CALM    29.96F
$$

WAZ028-311910-
LOWER COLUMBIA BASIN...WASHINGTON

CITY            SKY/WX      TMP DP  RH  WIND    PRES   REMARKS
HANFORD         CLOUDY      71  41  34  S5      29.97F
PASCO           PTCLDY      73  48  41  SW13    30.01F
6HR MIN TEMP:   59; 6HR MAX TEMP:   73;

#BENTON CITY    N/A         70  50  49  W2      29.88F
#CONNELL 5N     N/A         68  49  51  S3      29.98F
#CONNELL 5NW    N/A         65  51  60  S8      29.96S
#ELTOPIA 6NW    N/A         66  51  58  SW10    28.97F
#KAHLOTUS       N/A         66  47  50  W22G29  29.99S
#KENNEWICK      N/A         55  50  83  N2      27.62R
#KENNEWICK 3S   N/A         69  51  53  S7      29.98F
#PATERSON       N/A         69  50  51  SW15    29.98F
#PROSSER        N/A         70  45  41  N3      29.97F
#SAGEMOOR 2W    N/A         68  52  57  S8      29.83F
#TOUCHET 2S     N/A         73  49  43  W7      29.99F
#WEST PASCO     N/A         71  52  51  SW6     29.98F
$$

WAZ029-311910-
FOOTHILLS OF THE BLUES...WASHINGTON

CITY            SKY/WX      TMP DP  RH  WIND    PRES   REMARKS
WALLA WALLA AP  SUNNY       70  45  41  SW12    30.05S
6HR MIN TEMP:   57; 6HR MAX TEMP:   70;

#DAYTON SCHOOL  N/A         67  43  42  NE6     30.04S
#LOWDEN 2SE     N/A         72  49  44  W9      29.99F
#PLEASANT VIEW 1N/A         67  46  47  S15G26  30.04S
#PRESCOTT       N/A         70  49  47  W6      30.01F
#SUDBURY        N/A         73  N/A N/A CALM    N/A
#WHITMAN COLLEGEN/A         67  48  50  S6      30.07S
#WAITSBURG 8N   N/A         67  27  22  S12     29.88F
#WALLA WALLA U  N/A         71  49  46  CALM    30.01F
#WHITMAN MISSIONN/A         71  49  46  S6      30.02F
$$

WAZ030-311910-
BLUE MOUNTAINS...WASHINGTON

CITY            SKY/WX      TMP DP  RH  WIND    PRES   REMARKS
#SKI BLUEWOOD   N/A         57  42  57  S3      30.09S
$$

ORZ009-041-WAZ024-311910-
COLUMBIA RIVER GORGE

CITY            SKY/WX      TMP DP  RH  WIND    PRES   REMARKS
THE DALLES AP   PTCLDY      70  49  47  VRB3    30.03F
6HR MIN TEMP:   54; 6HR MAX TEMP:   70;

#ARLINGTON AIRPON/A         68  49  51  W12     N/A
#CELILO DOT     N/A         70  54  57  W3      N/A
#MOSIER 1S      N/A         68  42  39  NW8     30.05S
#RUFUS DOT      N/A         71  55  57  SW6     N/A

$$

ORZ510-311910-
NORTH CENTRAL OREGON

CITY            SKY/WX      TMP DP  RH  WIND    PRES   REMARKS
#DUFUR 9E       N/A         61  47  60  CALM    30.06F
#GRASS VALLEY 1SN/A         66  47  50  S6      30.03F
#KENT DOT       N/A         65  39  38  N12     N/A
#MAUPIN SCHOOL  N/A         70  49  47  SW5     30.03F
#MORO SCHOOL    N/A         65  52  63  SW1     30.06F
#SHANIKO 5WSW   N/A         59  40  49  S15     N/A
#TYGH VALLEY 2NEN/A         70  48  46  SE1     29.99F
#WAPANITIA AIRPON/A         67  46  47  S1      30.01F
#WASCO AIRPORT  N/A         66  45  47  W6      N/A
#WASCO 5NE      N/A         66  47  50  CALM    30.01F
$$

ORZ511-311910-
CENTRAL OREGON

CITY            SKY/WX      TMP DP  RH  WIND    PRES   REMARKS
BEND AIRPORT    PTCLDY      63  41  44  SE5     30.09F
PRINEVILLE AP   PTCLDY      64  43  46  E6      30.08F
REDMOND AIRPORT PTCLDY      64  43  46  S5      30.08F
6HR MIN TEMP:   35; 6HR MAX TEMP:   64;

#BEND 1SW       N/A         63  45  52  N3      N/A
#BEND-AWBREY    N/A         63  47  56  S1      30.01F
#BEND-KIM LN    N/A         64  50  60  SW1     30.06F
#CULVER         N/A         65  44  46  S2      30.03F
#LAKE BILLY CHINN/A         67  -2   6  NW3     30.09F
#POWELL BUTTE 3EN/A         59  44  57  SE5     N/A
#POWELL BUTTE   N/A         66  49  54  N3      29.70F
#PRINEVILLE 3N  N/A         64  47  54  W3      29.99F
#WARM SPRINGS   N/A         69  47  45  SW1     30.02F

$$


ORZ509-311910-
EAST SLOPES OF OREGON CASCADES

CITY            SKY/WX      TMP DP  RH  WIND    PRES   REMARKS
#BLUE BOX PASS  N/A         53   0  11  N2      N/A
#CAMP SHERMAN   N/A         71  44  38  CALM    29.98F
#LA PINE 4NW    N/A         59  44  57  CALM    30.08F
#SISTERS AIRPOR N/A         63  51  65  N1      30.17S
#SISTERS 1NW    N/A         63  42  46  E8      N/A
#SISTERS 3N     N/A         65  47  52  N3      30.11S
#SUNRIVER       N/A         63  46  54  E2      29.91F
#TUMALO 3W      N/A         62  46  56  E2      29.92F

$$

ORZ044-311910-
LOWER COLUMBIA BASIN...OREGON

CITY            SKY/WX      TMP DP  RH  WIND    PRES   REMARKS
HERMISTON       SUNNY       72  46  39  W14     30.02F
6HR MIN TEMP:   53; 6HR MAX TEMP:   73;

#BOARDMAN SCHOOLN/A         69  48  47  SW12    30.02F
#BOARDMAN 8SW   N/A         70  50  49  SW12    29.99F
#ECHO 8SW       N/A         71  47  42  W9      30.03F
#IONE SCHOOL    N/A         69  46  44  NW2     29.99F
#IRRIGON 4NW    N/A         71  49  46  S15     N/A
#UMATILLA SCHOOLN/A         71  55  57  CALM    30.02F
#UMATILLA       N/A         72  48  43  SW8     29.93F
$$

ORZ507-311910-
NORTHERN FOOTHILLS OF THE BLUES

CITY            SKY/WX      TMP DP  RH  WIND    PRES   REMARKS
PENDLETON AIRPT SUNNY       70  44  39  W10     30.04F
6HR MIN TEMP:   50; 6HR MAX TEMP:   70;

#ADAMS 3WNW     N/A         68  47  47  SE7     30.02F
#ATHENA         N/A         65  46  50  SW7     30.04F
#CAYUSE         N/A         66  47  50  SW3     30.01F
#HELIX SCHOOL   N/A         66  45  47  W9      30.02S
#HELIX 3N       N/A         66  45  47  SW13G24 30.02F
#HELIX 6SW      N/A         66  46  48  W14G24  30.04F
#HOLDMAN 5SE    N/A         68  47  47  W10     30.05S
#HOLDMAN 6E     N/A         67  45  45  N10     29.83S
#M-F GROVE ELEM N/A         70  43  38  SW6     30.02F
#M-FREEWATER 5SEN/A         69  49  49  SW6     30.03F
#PENDLETON DNTN N/A         73  44  35  NW2     30.07S
#PDT AQUATIC CTRN/A         68  49  51  W7      30.00F
#PDT SUNRIDGE   N/A         70  47  44  CALM    30.05F
#PENDLETON 7NW  N/A         72  51  48  W5      32.07S
#TUTUILLA       N/A         68  49  51  SE2     30.04F
#UMAPINE 2E     N/A         71  52  51  SW3     30.00F
#WESTON SCHOOL  N/A         65  43  45  NW8     29.98S

$$

ORZ508-311910-
SOUTHERN FOOTHILLS OF THE BLUES

CITY            SKY/WX      TMP DP  RH  WIND    PRES   REMARKS
#AJAX           N/A         65  41  41  SW2     29.98F
#CONDON SCHOOL  N/A         62  46  56  SW8     30.03S
#CONDON 5W      N/A         60  42  51  SW10    30.04F
#FOSSIL SCHOOL  N/A         66  51  58  CALM    29.94S
#HEPPNER EOC    N/A         67  44  43  W9      29.93F
#HEPPNER 4NE    N/A         65  44  46  NW9     30.01S
#LEXINGTON 2SE  N/A         71  46  41  NW5     29.99F
#OLEX 4N        N/A         67  47  49  SW10    30.02F
#RUGGS 5NE      N/A         66  43  43  W12     30.23S
#RUGGS 2SW      N/A         66  43  43  W6      30.02F

$$

ORZ502-503-311910-
BLUE MOUNTAINS

CITY            SKY/WX      TMP DP  RH  WIND    PRES   REMARKS
MEACHAM         PTCLDY      62  42  48  CALM    30.10S
6HR MIN TEMP:   39; 6HR MAX TEMP:   63;

#HEPPNER 15SE   N/A         63  44  50  CALM    29.99F
#LONG CREEK HS  N/A         62  46  56  CALM    30.05F
#PIKES PEAK     N/A         56  43  62  SW15    27.99S
#TOLLGATE       N/A         53  42  66  SW3     29.97S
#TROY SCHOOL    N/A         72  49  44  SE7     29.84F
#UKIAH          N/A         63  47  56  E3      30.07F
#WESTON 4E      N/A         61  44  53  SW7     29.98S
$$

ORZ505-311910-
JOHN DAY BASIN

CITY            SKY/WX      TMP DP  RH  WIND    PRES   REMARKS
JOHN DAY        SUNNY       66  44  45  N3      30.10F
#JOHN DAY KJDY  N/A         68  66  93  CALM    30.19F
#MITCHELL       N/A         68  50  53  CALM    30.22F
#MITCHELL 8NW   N/A         63  43  48  N3      30.21F
#MONUMENT HS    N/A         65  46  50  CALM    30.08F
#MT. VERNON 5SE N/A         62  45  54  W1      30.06F
#SPRAY SCHOOL   N/A         70  N/A N/A CALM    N/A
$$

ORZ506-311910-
OCHOCO AND JOHN DAY HIGHLANDS

CITY            SKY/WX      TMP DP  RH  WIND    PRES   REMARKS
#PINE MTN OBS   N/A         54  41  61  CALM    N/A
#PRAIRIE CITY   N/A         66  46  48  SW2     30.00F
#SENECA         N/A         62  N/A N/A NW3     N/A
#SENECA 9NW     N/A         58  44  60  SW1     30.03F
$$

ORZ049-311910-
GRANDE RONDE VALLEY

CITY            SKY/WX      TMP DP  RH  WIND    PRES   REMARKS
LA GRANDE       PTCLDY      70  39  32  S3      30.07F
#COVE           N/A         66  50  56  S3      30.09F
#COVE SCHOOL    N/A         65  45  48  CALM    30.10F
#ELGIN 3N       N/A         67  43  42  S8      30.04F
#ELGIN 1E       N/A         65  45  48  CALM    N/A
#ISLAND CITY 4N N/A         64  57  78  CALM    30.06S
#LADD CYN DOT   N/A         67  47  49  E6      N/A
#LA GRANDE ELEM N/A         67  48  50  E1      30.08F
#UNION 1S       N/A         67  46  47  SE2     29.93F
$$

ORZ050-311910-
WALLOWA COUNTY

CITY            SKY/WX      TMP DP  RH  WIND    PRES   REMARKS
#ENTERPRISE HS  N/A         62  45  54  NW2     30.09F
#IMNAHA SCHOOL  N/A         69  49  49  N2      30.03F
#IMNAHA 10S     N/A         67  46  47  NE3     30.05F
#JOSEPH 3N      N/A         59  42  53  W5      30.11S
#JOSEPH 3W      N/A         58  41  53  SE2     29.94F
#LOSTINE        N/A         63  46  54  CALM    29.84F
#MT HOWARD 8000 N/A         48  42  80  CALM    30.22R
#PROMISE 1S     N/A         59  44  57  E3      30.12S
#WALLOWA SCHOOL N/A         62  47  58  CALM    30.04F



$$



USA.gov is the U.S. government's official web portal to all federal, state and local government web resources and services.